When you browse on this site, cookies collect data to enhance your experience and personalize the content and advertising you see.
Visit our Privacy Policy to learn more. By continuing to use the site, you agree to this use of cookies and data.

Hourly Weather Curico

Today, 6 July, Monday

Time Temperature Precipitation Wind Pressure Humidity
00:00 +9°C° 0 mm 1 mps 745 mmHg 90%
01:00 +9°C° 0 mm 1 mps 745 mmHg 91%
02:00 +8°C° 0 mm 1 mps 744 mmHg 92%
03:00 +8°C° 0 mm 1 mps 744 mmHg 93%
04:00 +8°C° 0 mm 1 mps 744 mmHg 93%
05:00 +8°C° 0 mm 1 mps 743 mmHg 93%
06:00 +7°C° 0 mm 1 mps 743 mmHg 93%
07:00 +7°C° 0 mm 1 mps 743 mmHg 93%
08:00 +8°C° 0 mm 1 mps 743 mmHg 90%
09:00 +9°C° 0 mm 1 mps 743 mmHg 87%
10:00 +9°C° 0 mm 1 mps 743 mmHg 84%
11:00 +10°C° 0 mm 1 mps 742 mmHg 83%
12:00 +10°C° 0 mm 1 mps 742 mmHg 82%
13:00 +11°C° 0 mm 1 mps 741 mmHg 81%
14:00 +10°C° 0 mm 1 mps 742 mmHg 83%
15:00 +10°C° 0 mm 1 mps 742 mmHg 85%
16:00 +10°C° 0 mm 1 mps 742 mmHg 87%
17:00 +9°C° 0 mm 0 mps 743 mmHg 88%
18:00 +8°C° 0 mm 0 mps 743 mmHg 88%
19:00 +7°C° 0 mm 0 mps 743 mmHg 89%
20:00 +7°C° 0 mm 0 mps 744 mmHg 89%
21:00 +7°C° 0 mm 0 mps 744 mmHg 89%
22:00 +7°C° 0 mm 0 mps 744 mmHg 89%
23:00 +7°C° 0 mm 0 mps 744 mmHg 89%

Tomorrow, 7 July, Tuesday

Time Temperature Precipitation Wind Pressure Humidity
00:00 +7°C° 0 mm 0 mps 744 mmHg 89%
01:00 +6°C° 0 mm 0 mps 744 mmHg 88%
02:00 +6°C° 0 mm 0 mps 745 mmHg 88%
03:00 +6°C° 0 mm 0 mps 745 mmHg 87%
04:00 +6°C° 0 mm 0 mps 745 mmHg 87%
05:00 +6°C° 0 mm 0 mps 746 mmHg 86%
06:00 +7°C° 0 mm 1 mps 746 mmHg 86%
07:00 +6°C° 0 mm 1 mps 746 mmHg 85%
08:00 +8°C° 0 mm 1 mps 747 mmHg 81%
09:00 +10°C° 0 mm 1 mps 747 mmHg 77%
10:00 +12°C° 0 mm 1 mps 747 mmHg 73%
11:00 +13°C° 0 mm 1 mps 747 mmHg 69%
12:00 +14°C° 0 mm 1 mps 747 mmHg 65%
13:00 +15°C° 0 mm 1 mps 747 mmHg 61%
14:00 +14°C° 0 mm 1 mps 747 mmHg 66%
15:00 +13°C° 0 mm 1 mps 747 mmHg 71%
16:00 +12°C° 0 mm 1 mps 748 mmHg 75%
17:00 +11°C° 0 mm 1 mps 748 mmHg 77%
18:00 +10°C° 0 mm 1 mps 748 mmHg 78%
19:00 +9°C° 0 mm 1 mps 748 mmHg 80%
20:00 +9°C° 0 mm 1 mps 749 mmHg 80%
21:00 +9°C° 0 mm 1 mps 749 mmHg 81%
22:00 +7°C° 0 mm 0 mps 749 mmHg 81%
23:00 +7°C° 0 mm 0 mps 748 mmHg 80%

Day after tomorrow, 8 July, Wednesday

Time Temperature Precipitation Wind Pressure Humidity
00:00 +8°C° 0 mm 1 mps 748 mmHg 80%
01:00 +8°C° 0 mm 1 mps 748 mmHg 79%
02:00 +7°C° 0 mm 0 mps 748 mmHg 79%
03:00 +7°C° 0 mm 0 mps 748 mmHg 79%
04:00 +7°C° 0 mm 0 mps 747 mmHg 79%
05:00 +7°C° 0 mm 0 mps 748 mmHg 80%
06:00 +7°C° 0 mm 0 mps 748 mmHg 80%
07:00 +6°C° 0 mm 0 mps 748 mmHg 81%
08:00 +9°C° 0 mm 1 mps 748 mmHg 78%
09:00 +10°C° 0 mm 1 mps 748 mmHg 75%
10:00 +12°C° 0 mm 1 mps 748 mmHg 72%
11:00 +13°C° 0 mm 1 mps 748 mmHg 67%
12:00 +14°C° 0 mm 1 mps 748 mmHg 62%
13:00 +15°C° 0 mm 1 mps 747 mmHg 57%
14:00 +14°C° 0 mm 1 mps 747 mmHg 63%
15:00 +13°C° 0 mm 1 mps 747 mmHg 70%
16:00 +13°C° 0 mm 1 mps 747 mmHg 76%
17:00 +11°C° 0 mm 1 mps 747 mmHg 78%
18:00 +10°C° 0 mm 1 mps 748 mmHg 81%
19:00 +9°C° 0 mm 1 mps 748 mmHg 84%
20:00 +9°C° 0 mm 1 mps 748 mmHg 84%
21:00 +8°C° 0 mm 1 mps 748 mmHg 85%
22:00 +8°C° 0 mm 1 mps 748 mmHg 86%
23:00 +8°C° 0 mm 1 mps 747 mmHg 86%

9 July, Thursday

Time Temperature Precipitation Wind Pressure Humidity
00:00 +8°C° 0 mm 1 mps 747 mmHg 86%
01:00 +7°C° 0 mm 0 mps 747 mmHg 86%
02:00 +8°C° 0 mm 1 mps 747 mmHg 86%
03:00 +8°C° 0 mm 1 mps 747 mmHg 87%
04:00 +8°C° 0 mm 1 mps 747 mmHg 87%
05:00 +8°C° 0 mm 1 mps 747 mmHg 87%
06:00 +8°C° 0 mm 1 mps 747 mmHg 86%
07:00 +8°C° 0 mm 1 mps 747 mmHg 86%
08:00 +9°C° 0 mm 1 mps 747 mmHg 83%
09:00 +10°C° 0 mm 1 mps 747 mmHg 80%
10:00 +11°C° 0 mm 1 mps 747 mmHg 77%
11:00 +12°C° 0 mm 1 mps 747 mmHg 73%
12:00 +14°C° 0 mm 1 mps 746 mmHg 69%
13:00 +15°C° 0 mm 1 mps 746 mmHg 65%
14:00 +14°C° 0 mm 1 mps 746 mmHg 70%
15:00 +14°C° 0 mm 1 mps 746 mmHg 74%
16:00 +13°C° 0 mm 1 mps 746 mmHg 78%
17:00 +12°C° 0 mm 1 mps 746 mmHg 80%
18:00 +11°C° 0 mm 1 mps 746 mmHg 81%
19:00 +9°C° 0 mm 0 mps 746 mmHg 83%
20:00 +9°C° 0 mm 0 mps 746 mmHg 81%
21:00 +9°C° 0 mm 0 mps 746 mmHg 80%
22:00 +9°C° 0 mm 0 mps 746 mmHg 78%
23:00 +8°C° 0 mm 0 mps 746 mmHg 78%

10 July, Friday

Time Temperature Precipitation Wind Pressure Humidity
00:00 +8°C° 0 mm 0 mps 746 mmHg 78%
01:00 +9°C° 0 mm 1 mps 746 mmHg 78%
02:00 +8°C° 0 mm 0 mps 746 mmHg 79%
03:00 +8°C° 0 mm 0 mps 746 mmHg 80%
04:00 +7°C° 0 mm 0 mps 746 mmHg 81%
05:00 +7°C° 0 mm 0 mps 746 mmHg 82%
06:00 +7°C° 0 mm 0 mps 746 mmHg 83%
07:00 +7°C° 0 mm 0 mps 746 mmHg 83%
08:00 +9°C° 0 mm 0 mps 746 mmHg 80%
09:00 +11°C° 0 mm 0 mps 746 mmHg 78%
10:00 +13°C° 0 mm 0 mps 747 mmHg 75%
11:00 +15°C° 0 mm 1 mps 746 mmHg 74%
12:00 +16°C° 0 mm 1 mps 746 mmHg 73%
13:00 +16°C° 0 mm 1 mps 745 mmHg 73%
14:00 +16°C° 0 mm 1 mps 746 mmHg 77%
15:00 +15°C° 0 mm 1 mps 746 mmHg 82%
16:00 +15°C° 0 mm 1 mps 746 mmHg 86%
17:00 +14°C° 0 mm 1 mps 746 mmHg 87%
18:00 +13°C° 0 mm 1 mps 746 mmHg 88%
19:00 +11°C° 0 mm 0 mps 746 mmHg 88%
20:00 +11°C° 0 mm 0 mps 746 mmHg 87%
21:00 +11°C° 0 mm 1 mps 746 mmHg 86%
22:00 +11°C° 0 mm 1 mps 746 mmHg 85%
23:00 +10°C° 0 mm 0 mps 746 mmHg 85%

11 July, Saturday

Time Temperature Precipitation Wind Pressure Humidity
00:00 +10°C° 0 mm 0 mps 746 mmHg 84%
01:00 +10°C° 0 mm 0 mps 746 mmHg 84%
02:00 +10°C° 0 mm 0 mps 745 mmHg 83%
03:00 +10°C° 0 mm 0 mps 745 mmHg 83%
04:00 +10°C° 0 mm 0 mps 745 mmHg 82%
05:00 +10°C° 0 mm 0 mps 745 mmHg 82%
06:00 +10°C° 0 mm 0 mps 745 mmHg 82%
07:00 +10°C° 0 mm 0 mps 745 mmHg 82%
08:00 +11°C° 0 mm 0 mps 745 mmHg 81%
09:00 +12°C° 0 mm 0 mps 745 mmHg 79%
10:00 +14°C° 0 mm 1 mps 745 mmHg 78%
11:00 +15°C° 0 mm 1 mps 745 mmHg 78%
12:00 +15°C° 0 mm 1 mps 745 mmHg 78%
13:00 +16°C° 0 mm 1 mps 744 mmHg 78%
14:00 +15°C° 0 mm 1 mps 744 mmHg 81%
15:00 +15°C° 0 mm 1 mps 744 mmHg 85%
16:00 +14°C° 0 mm 1 mps 744 mmHg 88%
17:00 +14°C° 0 mm 1 mps 745 mmHg 89%
18:00 +13°C° 0 mm 1 mps 745 mmHg 89%
19:00 +12°C° 0 mm 0 mps 745 mmHg 90%
20:00 +13°C° 0 mm 1 mps 745 mmHg 90%
21:00 +12°C° 0 mm 1 mps 745 mmHg 90%
22:00 +12°C° 0 mm 1 mps 745 mmHg 90%
23:00 +12°C° 0 mm 1 mps 745 mmHg 90%
Show more